User: anonymous   Login
Location: Unspecified
(0.0000°N, 0.0000°E)
Time: 00:31:13
(UTC+00:00)
Language:

SSETI-EXPRESS DEB - Orbit

View from above orbital plane
View from above orbital plane
View from above satellite
View from above satellite

Ground track
Ground track

The orbit data is extracted from the following two-line orbital elements,

1 28897U 05043H   21023.61368626  .00000143  00000-0  35930-4 0  9994
2 28897  98.0320 160.9384 0014835 301.5342  68.6746 14.64328513805230
Epoch (UTC): 23 January 2021 14:43:42
Eccentricity: 0.0014835
inclination: 98.0320°
perigee height: 669 km
apogee height: 690 km
right ascension of ascending node: 160.9384°
argument of perigee: 301.5342°
revolutions per day: 14.64328513
mean anomaly at epoch: 68.6746°
orbit number at epoch: 80523

The dashed part of the orbit path shows where the satellite is in the earth's shadow,  

DLR